Pagine meno recenti

Vengono mostrati sotto 500 risultati dal 1 al 500.

Vedi (precedenti 500 | successivi 500) (20 | 50 | 100 | 250 | 500).

  1. 21-40‏‎ (10:38, 9 lug 2016)
  2. Accettare l'invito in una gilda‏‎ (15:37, 25 ago 2016)
  3. Gestione dell'esercito‏‎ (16:15, 25 ago 2016)
  4. Menù dell'Inventario‏‎ (17:57, 26 ago 2016)
  5. Creare una gilda‏‎ (23:29, 26 ago 2016)
  6. Monete‏‎ (23:47, 26 ago 2016)
  7. Medaglie‏‎ (23:49, 26 ago 2016)
  8. Ricompense Contribuzioni‏‎ (15:20, 27 ago 2016)
  9. Pasquale‏‎ (16:53, 27 ago 2016)
  10. Primo Compleanno di Forge of Empires‏‎ (23:25, 27 ago 2016)
  11. Colombo‏‎ (10:39, 28 ago 2016)
  12. Come abbandonare una gilda‏‎ (12:09, 4 set 2016)
  13. Menu classifica‏‎ (12:52, 4 set 2016)
  14. Sicurezza account‏‎ (13:01, 4 set 2016)
  15. Atto finale‏‎ (17:42, 4 set 2016)
  16. Barra di stato (desktop)‏‎ (18:05, 4 set 2016)
  17. Cattedrale di S. Basilio‏‎ (14:11, 5 set 2016)
  18. Classifica delle Gilde‏‎ (15:14, 5 set 2016)
  19. Colpo singolo‏‎ (15:24, 5 set 2016)
  20. Barra sociale‏‎ (20:02, 20 set 2016)
  21. Tipologia unità‏‎ (08:48, 6 ott 2016)
  22. Identità Segreta‏‎ (17:50, 11 ott 2016)
  23. Grepolis‏‎ (22:16, 11 ott 2016)
  24. Morale‏‎ (22:31, 11 ott 2016)
  25. Tribal Wars 2‏‎ (22:37, 11 ott 2016)
  26. The West‏‎ (22:38, 11 ott 2016)
  27. Elvenar‏‎ (22:39, 11 ott 2016)
  28. Incoraggiamento‏‎ (23:05, 11 ott 2016)
  29. Sciame di droni‏‎ (18:08, 12 ott 2016)
  30. Cecchino Antimateria‏‎ (18:09, 12 ott 2016)
  31. Artiglieria missilistica‏‎ (18:10, 12 ott 2016)
  32. Elicottero d'attacco‏‎ (18:11, 12 ott 2016)
  33. Artiglieria lanciarazzi‏‎ (18:11, 12 ott 2016)
  34. Artiglieria Meccanizata‏‎ (18:24, 12 ott 2016)
  35. Carro da battaglia‏‎ (18:30, 12 ott 2016)
  36. Fanteria Meccanizzata‏‎ (18:34, 12 ott 2016)
  37. Carro Armato‏‎ (19:45, 12 ott 2016)
  38. Guardia Imperiale‏‎ (21:26, 12 ott 2016)
  39. Cavaliere corazzato‏‎ (21:29, 12 ott 2016)
  40. Mercenario‏‎ (22:14, 12 ott 2016)
  41. Lancia Macigni‏‎ (22:21, 12 ott 2016)
  42. Classifica‏‎ (22:30, 12 ott 2016)
  43. Top center mobile‏‎ (08:47, 13 ott 2016)
  44. Top left‏‎ (09:10, 13 ott 2016)
  45. Raccogli tutto‏‎ (09:18, 13 ott 2016)
  46. Offerte‏‎ (09:22, 13 ott 2016)
  47. Impostazioni‏‎ (09:25, 13 ott 2016)
  48. Menù principale‏‎ (09:43, 13 ott 2016)
  49. Menù di ricerca‏‎ (09:53, 13 ott 2016)
  50. Top right‏‎ (10:16, 13 ott 2016)
  51. Barra dei Punti Forge‏‎ (10:18, 13 ott 2016)
  52. Tribal Wars‏‎ (18:12, 13 ott 2016)
  53. Testata multipla‏‎ (08:02, 14 ott 2016)
  54. Ricarica‏‎ (08:05, 14 ott 2016)
  55. Tiro potente‏‎ (09:14, 21 ott 2016)
  56. Terreno‏‎ (22:10, 5 nov 2016)
  57. Corpo a corpo‏‎ (09:30, 5 dic 2016)
  58. Tiratore scelto‏‎ (10:40, 20 feb 2017)
  59. Basilica di S. Marco‏‎ (14:26, 23 feb 2017)
  60. Anguilla Idroelettrica‏‎ (13:14, 15 mar 2017)
  61. Scava trincee‏‎ (13:41, 15 mar 2017)
  62. Tecnologie‏‎ (15:28, 15 mar 2017)
  63. Contemporanea‏‎ (10:56, 18 mar 2017)
  64. Domani‏‎ (10:58, 18 mar 2017)
  65. Bronzo‏‎ (12:01, 18 mar 2017)
  66. Cassa di Potenziamenti‏‎ (17:16, 10 apr 2017)
  67. Cannoni a rotaia‏‎ (11:19, 17 mag 2017)
  68. Menu impostazioni‏‎ (15:10, 26 mag 2017)
  69. Parte destra del mobile‏‎ (15:55, 26 mag 2017)
  70. Veleno‏‎ (17:44, 27 lug 2017)
  71. Industriale‏‎ (22:00, 5 ago 2017)
  72. Statua della fenice‏‎ (22:12, 30 ago 2017)
  73. Pieno medioevo‏‎ (10:59, 10 set 2017)
  74. Basso medioevo‏‎ (11:01, 10 set 2017)
  75. Coloniale‏‎ (11:02, 10 set 2017)
  76. Progressista‏‎ (11:06, 10 set 2017)
  77. Moderno‏‎ (11:08, 10 set 2017)
  78. Postmoderno‏‎ (11:10, 10 set 2017)
  79. Futuro‏‎ (11:16, 10 set 2017)
  80. Futuro Artico‏‎ (11:20, 10 set 2017)
  81. Frenesia‏‎ (15:42, 3 dic 2017)
  82. Consiglieri per le missioni‏‎ (22:02, 3 dic 2017)
  83. Diamanti‏‎ (22:07, 3 dic 2017)
  84. Felicità‏‎ (22:13, 3 dic 2017)
  85. Municipio - schermata‏‎ (20:44, 4 dic 2017)
  86. Marilyn Monroe‏‎ (22:03, 5 dic 2017)
  87. Top right mobile‏‎ (12:47, 9 dic 2017)
  88. Top left Mobile‏‎ (12:50, 9 dic 2017)
  89. Mondi di gioco‏‎ (12:56, 9 dic 2017)
  90. Messaggistica e Chat‏‎ (13:03, 9 dic 2017)
  91. Punti Forge‏‎ (13:11, 9 dic 2017)
  92. Classifica medaglie‏‎ (13:44, 9 dic 2017)
  93. Arthur Conan Doyle‏‎ (20:18, 10 dic 2017)
  94. La visita di Leonardo‏‎ (20:23, 10 dic 2017)
  95. Il Racconto dell'Eroe‏‎ (21:27, 10 dic 2017)
  96. Incidenti‏‎ (21:47, 10 dic 2017)
  97. Guerriero coraggioso‏‎ (21:52, 10 dic 2017)
  98. Barbaro Fromboliere‏‎ (21:52, 10 dic 2017)
  99. Cavaliere coraggioso‏‎ (21:52, 10 dic 2017)
  100. Inventario‏‎ (23:52, 11 dic 2017)
  101. Interazioni Sociali‏‎ (22:48, 12 dic 2017)
  102. Spedizioni di Gilda‏‎ (22:52, 12 dic 2017)
  103. Gilda vs Gilda‏‎ (00:22, 13 dic 2017)
  104. Committenti‏‎ (00:27, 13 dic 2017)
  105. Materiali‏‎ (00:33, 13 dic 2017)
  106. Taverna degli amici‏‎ (18:58, 13 dic 2017)
  107. San Valentino‏‎ (19:01, 13 dic 2017)
  108. Evento Pasquale‏‎ (19:03, 13 dic 2017)
  109. Giorno di Maggio‏‎ (19:04, 13 dic 2017)
  110. Cavalleria pesante‏‎ (19:21, 13 dic 2017)
  111. 5° Anniversario di Forge of Empires‏‎ (19:33, 13 dic 2017)
  112. Martin Luther King‏‎ (19:34, 13 dic 2017)
  113. Anno Bisestile‏‎ (19:35, 13 dic 2017)
  114. Yuri Gagarin‏‎ (19:37, 13 dic 2017)
  115. Isadora Duncan‏‎ (19:37, 13 dic 2017)
  116. Maria Stuarda‏‎ (19:39, 13 dic 2017)
  117. Sissi‏‎ (19:39, 13 dic 2017)
  118. Fratelli Montgolfier‏‎ (19:40, 13 dic 2017)
  119. Tour de France‏‎ (19:40, 13 dic 2017)
  120. Albert Einstein‏‎ (19:42, 13 dic 2017)
  121. Shah Jahan‏‎ (19:43, 13 dic 2017)
  122. Galileo Galilei‏‎ (19:46, 13 dic 2017)
  123. Mahatma Gandhi‏‎ (19:47, 13 dic 2017)
  124. Rosa Parks‏‎ (19:48, 13 dic 2017)
  125. Amministrazione Gilda‏‎ (19:59, 14 dic 2017)
  126. Permessi di gilda‏‎ (20:00, 14 dic 2017)
  127. Popolazione‏‎ (20:02, 14 dic 2017)
  128. Campionati delle Gilde‏‎ (20:04, 14 dic 2017)
  129. Glossario‏‎ (20:07, 14 dic 2017)
  130. Regolamento‏‎ (20:13, 14 dic 2017)
  131. Sicurezza‏‎ (20:14, 14 dic 2017)
  132. Beni Speciali‏‎ (20:17, 14 dic 2017)
  133. Promezio‏‎ (20:19, 14 dic 2017)
  134. FAQ‏‎ (20:22, 14 dic 2017)
  135. Basilica di S. Sofia‏‎ (21:05, 8 gen 2018)
  136. Oracolo di Delfi‏‎ (21:17, 8 gen 2018)
  137. Stormo‏‎ (21:24, 26 feb 2018)
  138. Sciame‏‎ (21:37, 26 feb 2018)
  139. Aliante‏‎ (21:38, 26 feb 2018)
  140. Futuro Oceanico‏‎ (20:58, 27 feb 2018)
  141. Abilità speciali‏‎ (21:03, 27 feb 2018)
  142. Esplosione‏‎ (21:04, 27 feb 2018)
  143. Fiato del Drago‏‎ (21:04, 27 feb 2018)
  144. Volare‏‎ (21:06, 27 feb 2018)
  145. Oricalco‏‎ (21:12, 27 feb 2018)
  146. La Galassia Blu‏‎ (21:58, 4 mar 2018)
  147. Napoleone Bonaparte‏‎ (20:37, 5 mar 2018)
  148. Mobile App‏‎ (21:17, 19 apr 2018)
  149. Applicazione Mobile‏‎ (21:18, 19 apr 2018)
  150. Cleopatra‏‎ (21:41, 19 apr 2018)
  151. Van Gogh‏‎ (20:19, 3 mag 2018)
  152. Sacajawea‏‎ (19:31, 19 mag 2018)
  153. Carro armato a levitazione‏‎ (19:09, 12 lug 2018)
  154. Chiamata al Dovere‏‎ (21:51, 17 lug 2018)
  155. Cavalleria‏‎ (21:53, 17 lug 2018)
  156. Contatto!‏‎ (21:55, 17 lug 2018)
  157. Campo di forza‏‎ (21:56, 17 lug 2018)
  158. Schieramento rapido‏‎ (21:57, 17 lug 2018)
  159. Armatura reattiva‏‎ (21:58, 17 lug 2018)
  160. Nascosto‏‎ (21:59, 17 lug 2018)
  161. Industriale - Età Contemporanea‏‎ (23:06, 17 lug 2018)
  162. Bronzo - Età Coloniale‏‎ (23:06, 17 lug 2018)
  163. Beni‏‎ (16:13, 19 lug 2018)
  164. Cimitero Antico‏‎ (19:17, 24 lug 2018)
  165. Palo di Maggio‏‎ (19:20, 24 lug 2018)
  166. Possente Palo di Maggio‏‎ (19:23, 24 lug 2018)
  167. Imponente Palo di Maggio‏‎ (19:25, 24 lug 2018)
  168. Fontana dell'Elefante‏‎ (19:36, 24 lug 2018)
  169. Pozzo dell'Accoglienza‏‎ (19:43, 24 lug 2018)
  170. Statua in Maschera‏‎ (10:47, 25 lug 2018)
  171. Statua in maschera da naso‏‎ (10:48, 25 lug 2018)
  172. Slitta con Renne‏‎ (10:51, 25 lug 2018)
  173. Statua d'ingresso Est/Ovest‏‎ (10:55, 25 lug 2018)
  174. Coppa del capocannoniere‏‎ (11:01, 25 lug 2018)
  175. Uomo Vitruviano‏‎ (11:06, 25 lug 2018)
  176. Cancello del Dio Sole‏‎ (11:10, 25 lug 2018)
  177. Premio d'Oro‏‎ (15:57, 25 lug 2018)
  178. Premio d'Argento‏‎ (15:58, 25 lug 2018)
  179. Premio di Bronzo‏‎ (15:59, 25 lug 2018)
  180. Premio di Pietra‏‎ (16:00, 25 lug 2018)
  181. Stagno Nishikigoi‏‎ (16:06, 25 lug 2018)
  182. Roccia di Sakura‏‎ (16:07, 25 lug 2018)
  183. Baobab Decorato‏‎ (16:14, 25 lug 2018)
  184. Parco Giochi del Bandar‏‎ (16:18, 25 lug 2018)
  185. Aro Titano‏‎ (16:20, 25 lug 2018)
  186. Giardino Chhatri‏‎ (16:22, 25 lug 2018)
  187. Albero dell'Amore‏‎ (16:24, 25 lug 2018)
  188. Grande Albero dell'Amore‏‎ (16:25, 25 lug 2018)
  189. Eterno Albero dell'amore‏‎ (16:27, 25 lug 2018)
  190. Ritiro del Campione‏‎ (16:41, 25 lug 2018)
  191. Ballo in Maschera‏‎ (10:53, 26 lug 2018)
  192. Mercato del Pontile della Gondola‏‎ (10:57, 26 lug 2018)
  193. Grande Fabbrica di dolciumi‏‎ (11:05, 26 lug 2018)
  194. Recinto delle renne‏‎ (11:06, 26 lug 2018)
  195. Enorme Fabbrica di dolciumi‏‎ (11:07, 26 lug 2018)
  196. Negozio Foeberge‏‎ (11:11, 26 lug 2018)
  197. Fattoria Terrazzata‏‎ (11:12, 26 lug 2018)
  198. Angolo dell'oratore‏‎ (18:45, 26 lug 2018)
  199. Villa Rinascimentale‏‎ (18:50, 26 lug 2018)
  200. Magione Rinascimentale‏‎ (18:51, 26 lug 2018)
  201. Casetta di Pan di Zenzero‏‎ (19:14, 26 lug 2018)
  202. Giardino dell'Obelisco‏‎ (19:15, 26 lug 2018)
  203. Santuario dell'Ispirazione‏‎ (19:18, 26 lug 2018)
  204. Santuario della Conoscenza‏‎ (19:19, 26 lug 2018)
  205. Piazza degli Scacchi‏‎ (19:22, 26 lug 2018)
  206. Guardia del Cielo Sacra‏‎ (19:24, 26 lug 2018)
  207. Casa stregata‏‎ (19:29, 26 lug 2018)
  208. Pilastro degli Eroi lvl 1‏‎ (19:39, 26 lug 2018)
  209. Pilastro degli Eroi lvl 2‏‎ (19:41, 26 lug 2018)
  210. Pilastro degli Eroi lvl 3‏‎ (19:42, 26 lug 2018)
  211. Pilastro degli Eroi lvl 4‏‎ (19:43, 26 lug 2018)
  212. Pilastro degli Eroi lvl 5‏‎ (19:44, 26 lug 2018)
  213. Pilastro degli Eroi lvl 6‏‎ (19:45, 26 lug 2018)
  214. Pilastro degli Eroi lvl 7‏‎ (19:46, 26 lug 2018)
  215. Tholos degli idoli‏‎ (18:31, 27 lug 2018)
  216. Pagoda ad un Piano‏‎ (18:32, 27 lug 2018)
  217. Zona Zen‏‎ (18:37, 27 lug 2018)
  218. Ingresso dell'Imperatore‏‎ (18:38, 27 lug 2018)
  219. Torre Orientale del Palazzo‏‎ (18:54, 27 lug 2018)
  220. Torre Occidentale del Palazzo‏‎ (18:55, 27 lug 2018)
  221. Chhatri Commemorativo‏‎ (18:56, 27 lug 2018)
  222. Ingresso della Fontana dell'Elefante‏‎ (18:58, 27 lug 2018)
  223. Tana delle tigri‏‎ (19:03, 27 lug 2018)
  224. Campo delle Guardie con Vessillo‏‎ (19:06, 27 lug 2018)
  225. Fontana della Giovinezza‏‎ (19:11, 27 lug 2018)
  226. Gong della Saggezza‏‎ (19:13, 27 lug 2018)
  227. Labirinto di Siepi‏‎ (19:23, 27 lug 2018)
  228. Fiamma Rituale‏‎ (19:25, 27 lug 2018)
  229. Pozzo dei Desideri‏‎ (19:34, 27 lug 2018)
  230. Evento Estivo 2013 - 2017‏‎ (19:59, 29 lug 2018)
  231. La Nave‏‎ (13:57, 8 ago 2018)
  232. Warlords of Aternum‏‎ (19:40, 26 ago 2018)
  233. Modalità Ricostruzione (Mobile)‏‎ (21:31, 31 ago 2018)
  234. Parte sinistra del mobile‏‎ (21:42, 31 ago 2018)
  235. Menù di costruzione‏‎ (21:46, 31 ago 2018)
  236. Modalità Ricostruzione‏‎ (12:05, 1 set 2018)
  237. Consumabili‏‎ (16:21, 6 set 2018)
  238. Mulino d'autunno‏‎ (20:16, 9 set 2018)
  239. Mulino d'autunno - Lv. 1‏‎ (20:24, 9 set 2018)
  240. Mulino d'autunno - Lv. 2‏‎ (20:45, 9 set 2018)
  241. Mulino d'autunno - Lv. 3‏‎ (20:49, 9 set 2018)
  242. Mulino d'autunno - Lv. 4‏‎ (20:53, 9 set 2018)
  243. Mulino d'autunno - Lv. 5‏‎ (20:58, 9 set 2018)
  244. Mulino d'autunno - Lv. 6‏‎ (21:02, 9 set 2018)
  245. Tana dei Furfanti‏‎ (21:36, 9 set 2018)
  246. Fabbrica di succo in Fiore‏‎ (21:43, 9 set 2018)
  247. Fabbrica di succo Fruttuosa‏‎ (21:44, 9 set 2018)
  248. Fabbrica di succo Produttiva‏‎ (21:44, 9 set 2018)
  249. Evento autunnale 2017‏‎ (19:59, 10 set 2018)
  250. Tamburino‏‎ (18:44, 12 set 2018)
  251. Scorciatoie da tastiera‏‎ (12:09, 29 set 2018)
  252. Rotonda Botanica‏‎ (20:34, 4 ott 2018)
  253. Genghis Khan‏‎ (20:45, 4 ott 2018)
  254. Missioni Storiche‏‎ (20:23, 5 ott 2018)
  255. Frammenti‏‎ (21:37, 18 ott 2018)
  256. Evento di Halloween 2017‏‎ (20:33, 19 ott 2018)
  257. Fabbrica di dolciumi‏‎ (17:57, 24 ott 2018)
  258. Torre della vittoria‏‎ (13:00, 5 nov 2018)
  259. Set Palazzo Indiano‏‎ (22:24, 8 nov 2018)
  260. Set Fontana Indiana‏‎ (22:36, 8 nov 2018)
  261. Set Villaggio d'Inverno‏‎ (23:38, 8 nov 2018)
  262. Set Giardino Reale‏‎ (23:45, 8 nov 2018)
  263. Mortaio‏‎ (19:57, 11 nov 2018)
  264. Special Building List‏‎ (14:38, 29 nov 2018)
  265. Great Building List‏‎ (14:39, 29 nov 2018)
  266. Evento Invernale (2017)‏‎ (22:04, 30 nov 2018)
  267. Evento Invernale‏‎ (22:09, 30 nov 2018)
  268. Emissari‏‎ (21:06, 26 dic 2018)
  269. Insediamento Culturale Vichingo‏‎ (21:01, 28 dic 2018)
  270. Panoramica degli Insediamenti Culturali‏‎ (21:04, 28 dic 2018)
  271. Ferro‏‎ (21:11, 28 dic 2018)
  272. Eventi e missioni storiche‏‎ (21:13, 28 dic 2018)
  273. Giardino classico‏‎ (19:07, 13 gen 2019)
  274. Pagina test‏‎ (18:45, 14 gen 2019)
  275. Forge Bowl 2018‏‎ (18:50, 14 gen 2019)
  276. Forge Bowl‏‎ (18:50, 14 gen 2019)
  277. Emissari Vichinghi‏‎ (13:22, 3 feb 2019)
  278. Pagoda a un piano‏‎ (14:51, 6 feb 2019)
  279. Futuro Virtuale‏‎ (13:02, 10 feb 2019)
  280. Calore‏‎ (13:18, 10 feb 2019)
  281. Carnevale 2018‏‎ (22:59, 17 feb 2019)
  282. Evento di Carnevale‏‎ (23:00, 17 feb 2019)
  283. Set di Edifici‏‎ (23:04, 17 feb 2019)
  284. Grandi Edifici‏‎ (20:25, 26 feb 2019)
  285. Set Piazza‏‎ (12:11, 5 mar 2019)
  286. Set Giardino di Ciliegi‏‎ (18:14, 24 mar 2019)
  287. Evento di Primavera 2018‏‎ (18:16, 24 mar 2019)
  288. Evento di Primavera‏‎ (16:07, 31 mar 2019)
  289. Evento Archeologia‏‎ (10:46, 2 mag 2019)
  290. Eventi e missioni‏‎ (10:51, 2 mag 2019)
  291. L'Universo‏‎ (10:52, 2 mag 2019)
  292. Interfaccia‏‎ (10:53, 2 mag 2019)
  293. Edifici della cultura‏‎ (13:40, 28 mag 2019)
  294. Decorazioni‏‎ (13:40, 28 mag 2019)
  295. Edifici per i beni‏‎ (13:40, 28 mag 2019)
  296. Municipio‏‎ (13:41, 28 mag 2019)
  297. Edificio con produzioni casuali‏‎ (13:41, 28 mag 2019)
  298. Edifici militari‏‎ (13:41, 28 mag 2019)
  299. Edifici produttivi‏‎ (13:41, 28 mag 2019)
  300. Edifici residenziali‏‎ (13:41, 28 mag 2019)
  301. Strade‏‎ (13:41, 28 mag 2019)
  302. Torre‏‎ (13:41, 28 mag 2019)
  303. Edificio che produce Potere‏‎ (13:41, 28 mag 2019)
  304. Vichinghi‏‎ (13:41, 28 mag 2019)
  305. Colonia su Marte‏‎ (13:41, 28 mag 2019)
  306. Potenziamenti Grande Edificio‏‎ (13:42, 28 mag 2019)
  307. Abilità Unità‏‎ (13:43, 28 mag 2019)
  308. Campione‏‎ (13:43, 28 mag 2019)
  309. Lista Unità‏‎ (13:43, 28 mag 2019)
  310. Ricompense province‏‎ (19:53, 29 mag 2019)
  311. Introduzione all'Era Spaziale Marziana‏‎ (20:15, 29 mag 2019)
  312. Era Spaziale Marziana‏‎ (20:32, 29 mag 2019)
  313. Età‏‎ (20:37, 29 mag 2019)
  314. Punti Classifica‏‎ (20:44, 29 mag 2019)
  315. Bonus‏‎ (20:46, 29 mag 2019)
  316. Costi sblocco difficoltà‏‎ (20:48, 29 mag 2019)
  317. Età del domani - Età del futuro virtuale‏‎ (20:59, 29 mag 2019)
  318. Classifica giocatore‏‎ (21:03, 29 mag 2019)
  319. Mappa Continentale‏‎ (21:05, 29 mag 2019)
  320. Espansione‏‎ (21:09, 29 mag 2019)
  321. Coppa di Calcio 2018‏‎ (20:22, 2 giu 2019)
  322. Eventi Speciali‏‎ (20:25, 2 giu 2019)
  323. Giardino di bonsai‏‎ (09:41, 3 giu 2019)
  324. Coppa di Calcio‏‎ (17:49, 5 giu 2019)
  325. Basi‏‎ (21:16, 5 lug 2019)
  326. Tornei PvP‏‎ (21:16, 5 lug 2019)
  327. Esercito e battaglie‏‎ (21:18, 5 lug 2019)
  328. Insediamento Culturale del Giappone Feudale‏‎ (22:31, 5 lug 2019)
  329. Espansioni del Giappone Feudale‏‎ (22:35, 5 lug 2019)
  330. Emissari Giapponesi‏‎ (22:38, 5 lug 2019)
  331. Insediamenti Culturali‏‎ (22:41, 5 lug 2019)
  332. Giappone feudale‏‎ (11:20, 10 lug 2019)
  333. Torre di Babele‏‎ (11:20, 10 lug 2019)
  334. Statua di Zeus‏‎ (11:20, 10 lug 2019)
  335. Basilica di Santa Sofia‏‎ (11:20, 10 lug 2019)
  336. Colosseo‏‎ (11:20, 10 lug 2019)
  337. Faro di Alessandria‏‎ (11:20, 10 lug 2019)
  338. Basilica di San Marco‏‎ (11:20, 10 lug 2019)
  339. Cattedrale di San Basilio‏‎ (11:20, 10 lug 2019)
  340. Cattedrale di Aquisgrana‏‎ (11:20, 10 lug 2019)
  341. Notre Dame‏‎ (11:20, 10 lug 2019)
  342. Castel del Monte‏‎ (11:20, 10 lug 2019)
  343. Frauenkirche di Dresda‏‎ (11:20, 10 lug 2019)
  344. Deal Castle‏‎ (11:20, 10 lug 2019)
  345. Château Frontenac‏‎ (11:20, 10 lug 2019)
  346. Campidoglio‏‎ (11:20, 10 lug 2019)
  347. Royal Albert Hall‏‎ (11:20, 10 lug 2019)
  348. Alcatraz‏‎ (11:20, 10 lug 2019)
  349. Space Needle‏‎ (11:20, 10 lug 2019)
  350. Atomium‏‎ (11:20, 10 lug 2019)
  351. Habitat 67‏‎ (11:20, 10 lug 2019)
  352. Osservatorio‏‎ (11:20, 10 lug 2019)
  353. Cape Canaveral‏‎ (11:20, 10 lug 2019)
  354. Innovation Tower‏‎ (11:20, 10 lug 2019)
  355. Tempio del Loto‏‎ (11:20, 10 lug 2019)
  356. Dynamic Tower‏‎ (11:20, 10 lug 2019)
  357. Voyager V1‏‎ (11:20, 10 lug 2019)
  358. Progetto Foresta Pluviale‏‎ (11:20, 10 lug 2019)
  359. Progetto Arc‏‎ (11:20, 10 lug 2019)
  360. Statua di Gea‏‎ (11:20, 10 lug 2019)
  361. Deposito di sementi‏‎ (11:20, 10 lug 2019)
  362. Tempio delle Reliquie‏‎ (11:20, 10 lug 2019)
  363. Museo di Atlantide‏‎ (11:20, 10 lug 2019)
  364. Serra Artica‏‎ (11:20, 10 lug 2019)
  365. Oracolo di Delphi‏‎ (11:20, 10 lug 2019)
  366. Il Kraken‏‎ (11:20, 10 lug 2019)
  367. Esercito di terracotta‏‎ (11:20, 10 lug 2019)
  368. La Galassia blu‏‎ (11:20, 10 lug 2019)
  369. Il progetto della Vergine‏‎ (11:20, 10 lug 2019)
  370. Osservatorio delle stelle‏‎ (11:20, 10 lug 2019)
  371. Antiquario‏‎ (19:35, 28 lug 2019)
  372. Alto medioevo‏‎ (19:36, 28 lug 2019)
  373. Evento Estivo 2018‏‎ (20:11, 28 lug 2019)
  374. Castello di Himeji‏‎ (09:09, 30 lug 2019)
  375. Evento Estivo‏‎ (18:48, 11 ago 2019)
  376. Evento autunnale 2018‏‎ (00:16, 1 set 2019)
  377. Gilde‏‎ (12:13, 8 set 2019)
  378. Livello di Gilda‏‎ (12:21, 8 set 2019)
  379. Evento autunnale‏‎ (19:37, 9 set 2019)
  380. Edifici‏‎ (20:36, 11 set 2019)
  381. Sfide Giornaliere‏‎ (20:40, 11 set 2019)
  382. Evento di Halloween 2018‏‎ (22:14, 5 ott 2019)
  383. Eventi Stagionali‏‎ (22:17, 5 ott 2019)
  384. Pagina principale‏‎ (22:19, 5 ott 2019)
  385. Mezzo di trasporto personale rapido‏‎ (08:38, 14 ott 2019)
  386. Parco vacanze olografico‏‎ (08:38, 14 ott 2019)
  387. Zoo verticale‏‎ (08:38, 14 ott 2019)
  388. Torre di comunicazione‏‎ (08:38, 14 ott 2019)
  389. Laguna blu‏‎ (08:38, 14 ott 2019)
  390. Cerchio in pietra‏‎ (08:38, 14 ott 2019)
  391. Taverna‏‎ (08:38, 14 ott 2019)
  392. Teatro‏‎ (08:38, 14 ott 2019)
  393. Scuola‏‎ (08:38, 14 ott 2019)
  394. Parrucchiere‏‎ (08:38, 14 ott 2019)
  395. Compagnia di Commercio‏‎ (08:38, 14 ott 2019)
  396. Venditore di Beni Esotici‏‎ (08:38, 14 ott 2019)
  397. Giardino Zen‏‎ (08:38, 14 ott 2019)
  398. Centro Commerciale‏‎ (08:38, 14 ott 2019)
  399. Mercato Galleggiante‏‎ (08:38, 14 ott 2019)
  400. Circo Viaggiante‏‎ (08:38, 14 ott 2019)
  401. Casinò‏‎ (08:38, 14 ott 2019)
  402. Mercato‏‎ (08:38, 14 ott 2019)
  403. Forca‏‎ (08:38, 14 ott 2019)
  404. Gogna‏‎ (08:38, 14 ott 2019)
  405. Locanda‏‎ (08:38, 14 ott 2019)
  406. Aeronave ad alghe‏‎ (08:38, 14 ott 2019)
  407. Sala concerti‏‎ (08:38, 14 ott 2019)
  408. Bio parco‏‎ (08:38, 14 ott 2019)
  409. Chiesa‏‎ (08:38, 14 ott 2019)
  410. Stazione di controllo del clima‏‎ (08:38, 14 ott 2019)
  411. Medico‏‎ (08:38, 14 ott 2019)
  412. Stampatore‏‎ (08:38, 14 ott 2019)
  413. Stazione della polizia‏‎ (08:38, 14 ott 2019)
  414. Saloon‏‎ (08:38, 14 ott 2019)
  415. Stazione di pompaggio dell'acqua‏‎ (08:38, 14 ott 2019)
  416. Anfiteatro‏‎ (08:38, 14 ott 2019)
  417. Museo di storia naturale‏‎ (08:38, 14 ott 2019)
  418. Bagni pubblici‏‎ (08:38, 14 ott 2019)
  419. Cartografo‏‎ (08:38, 14 ott 2019)
  420. Accademia‏‎ (08:38, 14 ott 2019)
  421. Arco di trionfo‏‎ (08:38, 14 ott 2019)
  422. Parco dei divertimenti‏‎ (08:38, 14 ott 2019)
  423. Biblioteca‏‎ (08:38, 14 ott 2019)
  424. Palazzo‏‎ (08:38, 14 ott 2019)
  425. Pista di pattinaggio‏‎ (08:38, 14 ott 2019)
  426. Carosello‏‎ (08:38, 14 ott 2019)
  427. Cinema drive-in‏‎ (08:38, 14 ott 2019)
  428. Tavola calda‏‎ (08:38, 14 ott 2019)
  429. Liv. 2 - Torre dell'orologio della Piazza‏‎ (08:38, 14 ott 2019)
  430. Sito di lancio mongolfiere‏‎ (08:38, 14 ott 2019)
  431. Liv. 1 - Torre dell'orologio della Piazza‏‎ (08:38, 14 ott 2019)
  432. Piramide d'Inverno‏‎ (08:38, 14 ott 2019)
  433. Mercato d'Inverno‏‎ (08:38, 14 ott 2019)
  434. Padiglione‏‎ (08:38, 14 ott 2019)
  435. Tribuna‏‎ (08:38, 14 ott 2019)
  436. Porta d'Inverno‏‎ (08:38, 14 ott 2019)
  437. Stagno d'autunno‏‎ (08:38, 14 ott 2019)
  438. Cimitero monumentale‏‎ (08:38, 14 ott 2019)
  439. Cimitero leggendario‏‎ (08:38, 14 ott 2019)
  440. Cimitero‏‎ (08:38, 14 ott 2019)
  441. Necropoli‏‎ (08:38, 14 ott 2019)
  442. Torre stregata‏‎ (08:38, 14 ott 2019)
  443. Vecchio Cimitero‏‎ (08:38, 14 ott 2019)
  444. Antico Cimitero‏‎ (08:38, 14 ott 2019)
  445. Palo di maggio‏‎ (08:38, 14 ott 2019)
  446. Rotonda botanica‏‎ (08:38, 14 ott 2019)
  447. Possente Palo di maggio‏‎ (08:38, 14 ott 2019)
  448. Imponente Palo di maggio‏‎ (08:38, 14 ott 2019)
  449. Fontana Giardino classico‏‎ (08:38, 14 ott 2019)
  450. Bagni pubblici decorati‏‎ (08:38, 14 ott 2019)
  451. Piazza dei Vincitori‏‎ (08:38, 14 ott 2019)
  452. Ristorante di pesce‏‎ (08:38, 14 ott 2019)
  453. Fontana dell'elefante‏‎ (08:38, 14 ott 2019)
  454. Castello di sabbia‏‎ (08:38, 14 ott 2019)
  455. Centro di recupero Tartarughe‏‎ (08:38, 14 ott 2019)
  456. Barriera corallina‏‎ (08:38, 14 ott 2019)
  457. Generatore a vortice‏‎ (08:38, 14 ott 2019)
  458. Naufragio‏‎ (08:38, 14 ott 2019)
  459. Cupola acquatica‏‎ (08:38, 14 ott 2019)
  460. Deposito Scambi‏‎ (08:38, 14 ott 2019)
  461. Parco acquatico‏‎ (08:38, 14 ott 2019)
  462. Covo segreto‏‎ (08:38, 14 ott 2019)
  463. Piscina pubblica‏‎ (08:38, 14 ott 2019)
  464. Festival musicale‏‎ (08:38, 14 ott 2019)
  465. Zoo‏‎ (08:38, 14 ott 2019)
  466. Parco cittadino‏‎ (08:38, 14 ott 2019)
  467. Campo da golf‏‎ (08:38, 14 ott 2019)
  468. Centrale Elettrica‏‎ (08:38, 14 ott 2019)
  469. Casa editrice‏‎ (08:38, 14 ott 2019)
  470. Accademia spaziale‏‎ (08:38, 14 ott 2019)
  471. Parabola satellitare‏‎ (08:38, 14 ott 2019)
  472. Entrata del metrò‏‎ (08:38, 14 ott 2019)
  473. Pallone aerostatico‏‎ (08:38, 14 ott 2019)
  474. Nexus Security‏‎ (08:38, 14 ott 2019)
  475. Arena olografica‏‎ (08:38, 14 ott 2019)
  476. Mostra di concept car‏‎ (08:38, 14 ott 2019)
  477. Discoteca aerea‏‎ (08:38, 14 ott 2019)
  478. Casinò del dragone‏‎ (08:38, 14 ott 2019)
  479. Bar karaoke‏‎ (08:38, 14 ott 2019)
  480. Robot gigante‏‎ (08:38, 14 ott 2019)
  481. Corteo‏‎ (08:38, 14 ott 2019)
  482. Armiere (Giappone feudale)‏‎ (08:38, 14 ott 2019)
  483. Galleria (Giappone feudale)‏‎ (08:38, 14 ott 2019)
  484. Piantagione di soia (Giappone feudale)‏‎ (08:38, 14 ott 2019)
  485. Laboratorio di strumenti (Giappone feudale)‏‎ (08:38, 14 ott 2019)
  486. Forgiatore di Asce (Vichinghi)‏‎ (08:38, 14 ott 2019)
  487. Fattoria Lana (Vichinghi)‏‎ (08:38, 14 ott 2019)
  488. Cacciatore di bestie (Vichinghi)‏‎ (08:38, 14 ott 2019)
  489. Birrificio di idromele (Vichinghi)‏‎ (08:38, 14 ott 2019)
  490. Albero di mele‏‎ (08:38, 14 ott 2019)
  491. Pergolato fiorito‏‎ (08:38, 14 ott 2019)
  492. Entrata della metropolitana‏‎ (08:38, 14 ott 2019)
  493. Cespuglio‏‎ (08:38, 14 ott 2019)
  494. Scultura di ghiaccio‏‎ (08:38, 14 ott 2019)
  495. Fiore ghiacciato‏‎ (08:38, 14 ott 2019)
  496. Fiori‏‎ (08:38, 14 ott 2019)
  497. Statua‏‎ (08:38, 14 ott 2019)
  498. Obelisco‏‎ (08:38, 14 ott 2019)
  499. Siepe‏‎ (08:38, 14 ott 2019)
  500. Siepe a forma di Fenicottero‏‎ (08:38, 14 ott 2019)

Vedi (precedenti 500 | successivi 500) (20 | 50 | 100 | 250 | 500).